Torna al catalogo

STARLINK-32961

AttivoComunicazioniVLEO
NORAD 63122·PAYLOAD·🇺🇸 United States

Lanciato Feb 27, 2025 da Cape Canaveral Space Force Station

Loading…

Prossimi Passaggi (prossime 24 ore)

TLE

AggiornatoSource: CelesTrak SupGP

Epoca: Sep 15, 2026, 02:18 UTC

1 63122C 25039U   26258.09631944 -.00012242  00000+0 -44348-3 0  2588
2 63122  43.0017  23.1849 0001509 273.4423  70.3703 15.27578060    10

Traccia STARLINK-32961 in tempo reale con AllMySat

Download on the App Store